Tracking 28790 objects as of 18-Apr-2024
HD Live streaming from Space Station
objects crossing your sky now

SL-16 DEB

Track SL-16 DEB now!
10-day predictions


NORAD ID: 22333
Int'l Code: 1992-093W
Perigee: 662.0 km
Apogee: 839.5 km
Inclination: 71.0 °
Period: 99.7 minutes
Semi major axis: 7121 km
RCS: 0.1907 m2 (medium)
Launch date: December 25, 1992
Source: Commonwealth of Independent States (former USSR) (CIS)
Launch site: TYURATAM MISSILE AND SPACE COMPLEX (TTMTR)

Note: This is SATELLITE DEBRIS
Your satellite tracking list
Your tracking list is empty




NASA's NSSDC Master Catalog

Two Line Element Set (TLE):
1 22333U 92093W   24108.87600076  .00002110  00000-0  56991-3 0  9992
2 22333  71.0066  21.5739 0124623  34.7874 326.1331 14.44507587625864
Source of the keplerian elements: AFSPC